New Haven, CT

12:38 AM EDT on August 26, 2016 (GMT -0400)
Tweed-New Haven

Weather History for KHVN - September, 2013

Change the Weather History Date:

Tuesday, September 17, 2013

  Actual Average Record
Temperature  
Mean Temperature 54 °F -  
Max Temperature 64 °F 72 °F 92 °F (1991)
Min Temperature 45 °F 56 °F 42 °F (1984)
Degree Days  
Heating Degree Days 10    
Growing Degree Days 4 (Base 50)    
Moisture  
Dew Point 37 °F    
Average Humidity 56    
Maximum Humidity 86    
Minimum Humidity 37    
Precipitation  
Precipitation 0.00 in - - ()
Sea Level Pressure  
Sea Level Pressure 30.36 in    
Wind  
Wind Speed 10 mph (NNE)    
Max Wind Speed 14 mph    
Max Gust Speed 25 mph    
Visibility 10 miles    
Events      
Averages and records for this station are not official NWS values.
T = Trace of Precipitation, MM = Missing Value Source: NWS Daily Summary

Daily Weather History Graph

Daily Weather History Graph

Search for Another Location

Airport or City:

Trip Planner

Search our weather history database for the weather conditions in past years. The results will help you decide how hot, cold, wet, or windy it might be!

Date:

Astronomy

Sep. 17, 2013 Rise Set
Actual Time 6:34 AM EDT 6:56 PM EDT
Civil Twilight 6:06 AM EDT 7:24 PM EDT
Nautical Twilight 5:33 AM EDT 7:57 PM EDT
Astronomical Twilight 5:00 AM EDT 8:30 PM EDT
Moon 5:42 PM EDT (9/17) 4:24 AM EDT (9/17)
Length of Visible Light 13h 18m
Length of Day
12h 22m
Waxing Gibbous, 96% of the Moon is Illuminated
Sep 17
Waxing Gibbous
Sep 19
Full
Sep 26
Last Quarter
Oct 4
New
Oct 11
First Quarter

Hourly Weather History & Observations

Time (EDT) Temp. Windchill Dew Point Humidity Pressure Visibility Wind Dir Wind Speed Gust Speed Precip Events Conditions
12:53 AM 51.1 °F - 35.1 °F 54% 30.26 in 10.0 mi North 13.8 mph 25.3 mph N/A   Clear
1:53 AM 50.0 °F - 35.1 °F 57% 30.29 in 10.0 mi North 13.8 mph 19.6 mph N/A   Clear
2:53 AM 48.0 °F - 34.0 °F 58% 30.30 in 10.0 mi North 10.4 mph - N/A   Clear
3:53 AM 46.9 °F - 34.0 °F 61% 30.32 in 10.0 mi NNE 10.4 mph - N/A   Clear
4:53 AM 46.0 °F 41.4 °F 34.0 °F 63% 30.33 in 10.0 mi NNE 9.2 mph - N/A   Clear
5:53 AM 45.0 °F 39.3 °F 35.1 °F 68% 30.35 in 10.0 mi North 11.5 mph - N/A   Clear
6:53 AM 45.0 °F 39.3 °F 36.0 °F 71% 30.38 in 10.0 mi North 11.5 mph - N/A   Clear
7:53 AM 48.0 °F - 36.0 °F 63% 30.40 in 10.0 mi North 10.4 mph - N/A   Clear
8:53 AM 51.1 °F - 37.0 °F 59% 30.42 in 10.0 mi North 11.5 mph - N/A   Clear
9:53 AM 55.9 °F - 37.0 °F 49% 30.43 in 10.0 mi NNE 11.5 mph - N/A   Clear
10:53 AM 57.0 °F - 36.0 °F 45% 30.43 in 10.0 mi NE 12.7 mph 19.6 mph N/A   Clear
11:53 AM 60.1 °F - 36.0 °F 41% 30.43 in 10.0 mi NE 9.2 mph 17.3 mph N/A   Clear
12:53 PM 61.0 °F - 36.0 °F 39% 30.41 in 10.0 mi NNE 10.4 mph 19.6 mph N/A   Clear
1:53 PM 61.0 °F - 35.1 °F 38% 30.40 in 10.0 mi NE 9.2 mph 16.1 mph N/A   Clear
2:53 PM 63.0 °F - 36.0 °F 37% 30.38 in 10.0 mi NNE 8.1 mph - N/A   Clear
3:53 PM 64.0 °F - 37.0 °F 37% 30.36 in 10.0 mi North 6.9 mph 18.4 mph N/A   Clear
4:53 PM 64.0 °F - 37.0 °F 37% 30.36 in 10.0 mi NNE 10.4 mph - N/A   Clear
5:53 PM 63.0 °F - 37.0 °F 38% 30.35 in 10.0 mi NNE 6.9 mph - N/A   Clear
6:53 PM 57.9 °F - 39.0 °F 49% 30.35 in 10.0 mi Calm Calm - N/A   Clear
7:53 PM 53.1 °F - 41.0 °F 64% 30.36 in 10.0 mi Calm Calm - N/A   Clear
8:53 PM 50.0 °F - 42.1 °F 74% 30.36 in 10.0 mi Calm Calm - N/A   Clear
9:53 PM 48.9 °F - 43.0 °F 80% 30.36 in 10.0 mi Calm Calm - N/A   Clear
10:53 PM 48.9 °F - 44.1 °F 83% 30.36 in 10.0 mi Calm Calm - N/A   Clear
11:53 PM 46.9 °F - 43.0 °F 86% 30.35 in 10.0 mi Calm Calm - N/A   Clear